FW6591 Weather Reports


time (UTC)temp
C
wind
direction
speed
KPH
gust
KPH
rain 1hr
cm
rain 24hr
cm
rain mn
cm
humidity
%
barometer
mb
20260510020036 17 315 11.3 24.1 0.00 0.00 0.00 44 1005.5
20260510014547 17 9 6.4 17.7 0.00 0.00 0.00 45 1005.7
20260510013049 16 313 3.2 8.0 0.00 0.00 0.00 46 1005.9
20260510011550 16 9 6.4 12.9 0.00 0.00 0.00 47 1006.0
20260510010044 15 9 4.8 6.4 0.00 0.00 0.00 54 1006.1
20260510004551 14 43 1.6 6.4 0.00 0.00 0.00 58 1006.2
20260510003045 12 309 1.6 4.8 0.00 0.00 0.00 64 1006.4
20260510001544 12 9 1.6 3.2 0.00 0.00 0.00 63 1006.9
20260510000059 12 11 3.2 6.4 0.00 0.00 0.00 63 1007.2
20260509234548 12 304 4.8 8.0 0.00 0.00 0.00 61 1007.5
20260509233047 11 281 1.6 6.4 0.00 0.00 0.00 63 1007.7
20260509231545 11 36 3.2 6.4 0.00 0.00 0.00 65 1008.0
20260509230054 10 9 3.2 8.0 0.00 0.00 0.00 69 1008.6
20260509224547 10 303 3.2 6.4 0.00 0.00 0.00 69 1008.7
20260509223043 10 292 4.8 8.0 0.00 0.00 0.00 69 1009.0
20260509221550 10 314 1.6 4.8 0.00 0.00 0.00 68 1009.3
20260509220038 11 0 0.0 4.8 0.00 0.00 0.00 63 1009.7
20260509214559 11 350 1.6 3.2 0.00 0.00 0.00 60 1010.1
20260509213049 12 31 0.0 3.2 0.00 0.00 0.00 56 1010.4
20260509211545 13 11 1.6 4.8 0.00 0.00 0.00 53 1011.0
20260509210045 15 331 1.6 12.9 0.00 0.00 0.00 48 1011.1
20260509204543 16 46 4.8 16.1 0.00 0.00 0.00 43 1011.4
20260509203059 16 41 8.0 16.1 0.00 0.00 0.00 43 1011.6
20260509201548 16 38 9.7 20.9 0.00 0.00 0.00 44 1011.9
20260509200049 15 31 3.2 14.5 0.00 0.00 0.00 48 1012.0
20260509194548 15 41 6.4 9.7 0.00 0.00 0.00 48 1012.4
20260509193046 13 57 3.2 9.7 0.00 0.00 0.00 53 1012.7
20260509191554 12 344 1.6 8.0 0.00 0.00 0.00 58 1012.9
20260509190041 12 0 0.0 3.2 0.00 0.00 0.00 60 1012.9
20260509184557 12 0 0.0 3.2 0.00 0.00 0.00 57 1013.2
20260509183056 12 0 0.0 3.2 0.00 0.00 0.00 58 1013.4
20260509181545 13 0 0.0 3.2 0.00 0.00 0.00 55 1013.6
20260509180044 13 0 0.0 3.2 0.00 0.00 0.00 55 1013.8
20260509174548 13 0 0.0 3.2 0.00 0.00 0.00 53 1013.8
20260509173051 14 0 0.0 3.2 0.00 0.00 0.00 51 1014.0
20260509171544 15 0 1.6 6.4 0.00 0.00 0.00 50 1014.0
20260509170044 15 19 3.2 8.0 0.00 0.00 0.00 50 1013.7
20260509164544 15 16 1.6 8.0 0.00 0.00 0.00 50 1013.7
20260509163042 16 16 1.6 8.0 0.00 0.00 0.00 46 1013.7
20260509161545 16 348 1.6 12.9 0.00 0.00 0.00 44 1013.7
20260509160048 17 307 3.2 12.9 0.00 0.00 0.00 42 1013.8
20260509154544 17 9 1.6 12.9 0.00 0.00 0.00 42 1013.7
20260509153054 18 13 3.2 6.4 0.00 0.00 0.00 40 1013.7
20260509151544 19 332 3.2 12.9 0.00 0.00 0.00 38 1013.7
20260509150042 20 352 3.2 17.7 0.00 0.00 0.00 38 1013.5
20260509144540 20 316 8.0 17.7 0.00 0.00 0.00 34 1013.3
20260509143035 21 315 9.7 22.5 0.00 0.00 0.00 33 1013.4
20260509141544 21 319 14.5 27.4 0.00 0.00 0.00 31 1013.3
20260509140044 21 22 19.3 24.1 0.00 0.00 0.00 32 1013.2
20260509134542 21 320 16.1 27.4 0.00 0.00 0.00 31 1013.3
20260509133046 21 329 16.1 24.1 0.00 0.00 0.00 33 1013.2
20260509131549 21 319 12.9 29.0 0.00 0.00 0.00 33 1013.3
20260509130058 21 352 20.9 29.0 0.00 0.00 0.00 33 1013.4
20260509124550 21 352 22.5 40.2 0.00 0.00 0.00 33 1013.3
20260509123043 21 281 22.5 33.8 0.00 0.00 0.00 33 1013.5
20260509121547 21 313 19.3 32.2 0.00 0.00 0.00 33 1013.6
20260509120038 21 313 20.9 38.6 0.00 0.00 0.00 33 1013.9
20260509114552 21 329 22.5 37.0 0.00 0.00 0.00 31 1014.0
20260509113054 21 314 19.3 35.4 0.00 0.00 0.00 33 1014.2
20260509111542 21 360 16.1 25.7 0.00 0.00 0.00 34 1014.3
20260509110040 20 315 17.7 27.4 0.00 0.00 0.00 34 1014.6
20260509104547 20 352 11.3 32.2 0.00 0.00 0.00 37 1015.1
20260509103058 20 352 12.9 29.0 0.00 0.00 0.00 39 1015.4
20260509101559 20 306 11.3 29.0 0.00 0.00 0.00 37 1015.8
20260509100044 20 323 9.7 29.0 0.00 0.00 0.00 37 1016.0
20260509094556 19 351 16.1 32.2 0.00 0.00 0.00 37 1016.3
20260509093049 18 360 17.7 30.6 0.00 0.00 0.00 38 1016.6
20260509091544 18 325 14.5 32.2 0.00 0.00 0.00 40 1016.9
20260509090052 18 316 14.5 30.6 0.00 0.00 0.00 41 1017.3
20260509084546 18 309 14.5 29.0 0.00 0.00 0.00 41 1017.8
20260509083053 17 30 11.3 24.1 0.00 0.00 0.00 44 1017.9
20260509081535 17 9 8.0 17.7 0.00 0.00 0.00 46 1018.2
20260509080048 17 38 3.2 19.3 0.00 0.00 0.00 49 1018.3
20260509074546 16 44 4.8 16.1 0.00 0.00 0.00 48 1018.6
20260509073040 16 28 8.0 14.5 0.00 0.00 0.00 50 1018.6
20260509071548 16 329 3.2 8.0 0.00 0.00 0.00 51 1018.9
20260509070042 15 0 0.0 6.4 0.00 0.00 0.00 56 1018.9
20260509064542 13 29 1.6 3.2 0.00 0.00 0.00 63 1019.0
20260509063044 12 9 1.6 3.2 0.00 0.00 0.00 64 1019.1
20260509061543 11 21 1.6 4.8 0.00 0.00 0.00 70 1019.2
20260509060104 9 24 1.6 3.2 0.00 0.00 0.00 74 1019.1
20260509054549 7 352 1.6 4.8 0.00 0.00 0.00 79 1019.0
20260509053110 6 9 0.0 1.6 0.00 0.00 0.00 83 1019.0
20260509051553 6 9 1.6 3.2 0.00 0.00 0.00 81 1019.1
20260509050043 7 352 1.6 3.2 0.00 0.00 0.00 81 1018.9
20260509044609 7 9 1.6 4.8 0.00 0.00 0.00 82 1019.0
20260509043117 7 331 1.6 3.2 0.00 0.00 0.00 82 1019.1
20260509041545 7 0 0.0 1.6 0.00 0.00 0.00 80 1019.1
20260509040051 7 319 0.0 3.2 0.00 0.00 0.00 79 1019.2
20260509034549 8 0 0.0 4.8 0.00 0.00 0.00 78 1019.0
20260509033048 8 19 3.2 6.4 0.00 0.00 0.00 79 1019.1
20260509031558 8 9 1.6 6.4 0.00 0.00 0.00 79 1019.2
20260509030108 8 9 3.2 6.4 0.00 0.00 0.00 79 1019.1
20260509024548 8 9 4.8 6.4 0.00 0.00 0.00 77 1019.2
20260509023045 9 17 3.2 6.4 0.00 0.00 0.00 75 1019.2
20260509021547 10 17 3.2 12.9 0.00 0.00 0.00 71 1019.2